This demonstration page uses our WeatherBlox Daily Observations layout. Learn more.

Left ArrowRight Arrow

Hourly Observations for December 30, 2015

Temp ( °F °C ) Dew Point ( °F °C ) Humidity (%) Winds ( mph kmh ) Pressure ( in mb ) Visibility ( mi km ) Precip ( " mm )
12:53 am 00:53 Clear 57 13.9 54 12.2 90 90 Calm 30.14 1021 10 16 0.00 0.00
1:53 am 01:53 Cloudy 58 14.4 55 12.8 90 90 Calm 30.14 1021 10 16 0.00 0.00
2:19 am 02:19 Cloudy 58 14.4 55 12.8 90 90 Calm 30.15 1021 10 16 0.00 0.00
2:40 am 02:40 Cloudy 58 14.4 55 12.8 90 90 Calm 30.15 1021 10 16 0.00 0.03
2:53 am 02:53 Cloudy 59 15 55 12.8 87 87 ESE 3 6 30.13 1020 10 16 0.00 0.03
3:01 am 03:01 Cloudy 59 15 55 12.8 87 87 Calm 30.15 1021 10 16 0.00 0.00
3:53 am 03:53 Cloudy 59 15 56 13.3 90 90 Calm 30.13 1020 10 16 0.00 0.00
4:53 am 04:53 Cloudy 60 15.6 57 13.9 90 90 Calm 30.11 1020 10 16 0.00 0.03
5:47 am 05:47 Cloudy with Mist and Fog 61 16 57 14 88 88 NE 3 6 30.12 1020 3 4 0.00 0.00
5:53 am 05:53 Cloudy with Mist and Fog 60 15.6 57 13.9 90 90 NE 5 7 30.09 1019 2 3 0.00 0.00
6:07 am 06:07 Cloudy with Nearby Thunderstorms 60 15.6 58 14.4 93 93 N 3 6 30.12 1020 2 3 0.00 0.00
6:22 am 06:22 Cloudy with Mist and Fog 61 16 57 14 88 88 Calm 30.12 1020 2 3 0.00 0.00
6:53 am 06:53 Cloudy with Nearby Thunderstorms 60 15.6 59 15 96 96 Calm 30.11 1020 2 3 0.04 1.02
7:07 am 07:07 Cloudy with Thunderstorms 60 15.6 58 14.4 93 93 WSW 5 7 30.15 1021 2 3 0.03 0.76
7:28 am 07:28 Cloudy with Nearby Thunderstorms 61 16 59 15 94 94 Calm 30.12 1020 2 3 0.00 0.00
7:53 am 07:53 Cloudy with Heavy Rain 61 16.1 59 15 93 93 NNW 9 15 30.14 1021 2 3 0.22 5.59
8:00 am 08:00 Cloudy with Heavy Rain 61 16 59 15 94 94 NNW 8 13 30.15 1021 3 5 0.00 0.00
8:07 am 08:07 Cloudy with Heavy Rain 62 16.7 60 15.6 93 93 N 5 7 30.15 1021 3 5 0.09 2.29
8:20 am 08:20 Cloudy with Rain 63 17 61 16 94 94 E 5 7 30.15 1021 4 6 0.00 0.00
8:44 am 08:44 Cloudy with Rain 63 17 61 16 94 94 ENE 5 7 30.15 1021 7 11 0.00 0.00
8:53 am 08:53 Cloudy with Rain 62 16.7 60 15.6 93 93 E 3 6 30.14 1021 6 10 0.26 6.60
9:05 am 09:05 Cloudy with Light Rain 62 16.7 60 15.6 93 93 E 3 6 30.15 1021 6 10 0.03 0.76
9:31 am 09:31 Cloudy with Light Rain 62 16.7 60 15.6 93 93 Calm 30.15 1021 10 16 0.06 1.52
9:53 am 09:53 Cloudy 63 17.2 60 15.6 90 90 N 3 6 30.15 1021 10 16 0.06 1.52
10:44 am 10:44 Cloudy with Light Rain 63 17 59 15 88 88 WNW 7 11 30.18 1022 2 3 0.00 0.00
10:53 am 10:53 Cloudy with Light Rain 62 16.7 59 15 90 90 WNW 7 11 30.17 1022 9 14 0.03 0.76
11:41 am 11:41 Cloudy with Thunderstorms 61 16.1 58 14.4 90 90 Calm 30.18 1022 3 4 0.05 1.27
11:50 am 11:50 Cloudy with Thunderstorms 61 16 57 14 88 88 NW 7 11 30.18 1022 4 6 0.00 0.00
11:53 am 11:53 Cloudy with Thunderstorms 61 16.1 58 14.4 90 90 NW 7 11 30.16 1021 9 14 0.06 1.52
12:21 pm 12:21 Cloudy with Light Rain 60 15.6 56 13.3 86 86 NW 8 13 30.18 1022 10 16 0.00 0.03
12:40 pm 12:40 Cloudy with Light Rain 58 14.4 55 12.8 90 90 NW 6 9 30.18 1022 5 8 0.01 0.25
12:53 pm 12:53 Cloudy with Light Rain 58 14.4 55 12.8 90 90 VRB 3 6 30.17 1022 10 16 0.02 0.51
1:16 pm 13:16 Cloudy with Light Rain 59 15 55 13 88 88 WNW 7 11 30.18 1022 10 16 0.00 0.00
1:53 pm 13:53 Mostly Cloudy 59 15 56 13.3 90 90 SSW 5 7 30.17 1022 8 13 0.02 0.51
2:53 pm 14:53 Cloudy with Light Rain 59 15 56 13.3 90 90 NNW 5 7 30.14 1021 8 13 0.01 0.25
3:00 pm 15:00 Cloudy with Light Rain 59 15 55 13 88 88 NW 5 7 30.15 1021 8 13 0.00 0.00
3:10 pm 15:10 Cloudy with Light Rain 59 15 55 13 88 88 WNW 5 7 30.15 1021 8 13 0.00 0.00
3:53 pm 15:53 Cloudy with Light Rain 59 15 56 13.3 90 90 W 5 7 30.16 1022 8 13 0.00 0.03
4:53 pm 16:53 Cloudy with Light Rain 59 15 55 12.8 87 87 NW 3 6 30.15 1021 10 16 0.00 0.03
5:53 pm 17:53 Cloudy 59 15 55 12.8 87 87 Calm 30.14 1021 10 16 0.01 0.25
6:53 pm 18:53 Cloudy 59 15 56 13.3 90 90 Calm 30.16 1021 10 16 0.00 0.00
7:53 pm 19:53 Cloudy with Light Rain 59 15 57 13.9 93 93 S 3 6 30.16 1022 6 10 0.00 0.03
8:53 pm 20:53 Cloudy with Light Rain 58 14.4 56 13.3 93 93 Calm 30.17 1022 4 6 0.05 1.27
9:53 pm 21:53 Cloudy 59 15 56 13.3 90 90 Calm 30.14 1021 7 11 0.00 0.03
10:53 pm 22:53 Mostly Clear with Mist and Fog 58 14.4 57 13.9 97 97 Calm 30.14 1021 6 10 0.00 0.00
11:09 pm 23:09 Mostly Cloudy 59 15 56 13.3 90 90 Calm 30.15 1021 7 11 0.00 0.00
11:20 pm 23:20 Cloudy with Mist and Fog 57 14 55 13 94 94 Calm 30.12 1020 3 5 0.00 0.00
11:50 pm 23:50 Mostly Cloudy with Mist and Fog 57 14 55 13 94 94 Calm 30.12 1020 5 8 0.00 0.00
11:53 pm 23:53 Mostly Cloudy with Mist and Fog 58 14.4 56 13.3 93 93 Calm 30.12 1020 6 10 0.00 0.00

Powered by AerisWeather